Weather History for LIEO - January, 2014

Change the Weather History Date:

Thursday, January 2, 2014

  Actual Average Record
Temperature  
Mean Temperature 52 °F -  
Max Temperature 61 °F 55 °F - ()
Min Temperature 42 °F 39 °F - ()
Degree Days  
Heating Degree Days 14    
Growing Degree Days 2 (Base 50)    
Moisture  
Dew Point 48 °F    
Average Humidity 83    
Maximum Humidity 93    
Minimum Humidity 64    
Precipitation  
Precipitation 0.00 in 0.06 in - ()
Sea Level Pressure  
Sea Level Pressure 30.04 in    
Wind  
Wind Speed 4 mph ()    
Max Wind Speed 14 mph    
Max Gust Speed -    
Visibility 8.1 miles    
Events      
T = Trace of Precipitation, MM = Missing Value Source: Averaged Metar Reports

Daily Weather History Graph

Daily Weather History Graph

Search for Another Location

Airport or City:

Trip Planner

Search our weather history database for the weather conditions in past years. The results will help you decide how hot, cold, wet, or windy it might be!

Date:

Astronomy

Jan. 02, 2014 Rise Set
Actual Time 7:46 AM CET 5:05 PM CET
Civil Twilight 7:15 AM CET 5:36 PM CET
Nautical Twilight 6:41 AM CET 6:10 PM CET
Astronomical Twilight 6:08 AM CET 6:44 PM CET
Moon 8:13 AM CET (1/2) 6:43 PM CET (1/2)
Length of Visible Light 10h 20m
Length of Day
9h 18m
New Moon, 2% of the Moon is Illuminated
Jan 2
New Moon
Jan 8
First Quarter
Jan 16
Full
Jan 24
Last Quarter
Jan 30
New

Hourly Weather History & Observations

Time (CET) Temp. Windchill Dew Point Humidity Pressure Visibility Wind Dir Wind Speed Gust Speed Precip Events Conditions
12:20 AM 46.4 °F - 44.6 °F 93% 30.09 in 6.2 mi Variable 2.3 mph - N/A   Scattered Clouds
12:50 AM 46.4 °F - 44.6 °F 93% 30.09 in 6.2 mi Variable 1.2 mph - N/A   Scattered Clouds
1:00 AM 46 °F - 44 °F 92% 30.09 in 16 mi SW 1.2 mph - -   Partly Cloudy
1:20 AM 46.4 °F - 44.6 °F 93% 30.09 in 6.2 mi Variable 1.2 mph - N/A   Scattered Clouds
3:20 AM 46.4 °F 45.2 °F 44.6 °F 93% 30.06 in 6.2 mi SSW 3.5 mph - N/A   Scattered Clouds
3:50 AM 46.4 °F 45.2 °F 44.6 °F 93% 30.06 in 6.2 mi SSW 3.5 mph - N/A   Scattered Clouds
4:00 AM 47 °F - 45 °F 90% 30.06 in 16 mi SSW 2.3 mph - -   Partly Cloudy
4:20 AM 48.2 °F - 46.4 °F 93% 30.06 in 6.2 mi South 4.6 mph - N/A   Scattered Clouds
4:50 AM 48.2 °F - 46.4 °F 93% 30.06 in 6.2 mi SW 3.5 mph - N/A   Scattered Clouds
5:20 AM 50.0 °F - 46.4 °F 87% 30.04 in 6.2 mi SSW 3.5 mph - N/A   Scattered Clouds
5:50 AM 48.2 °F - 44.6 °F 87% 30.06 in 6.2 mi SW 4.6 mph - N/A   Scattered Clouds
6:20 AM 46.4 °F 45.2 °F 42.8 °F 87% 30.04 in 6.2 mi SW 3.5 mph - N/A   Scattered Clouds
6:50 AM 48.2 °F - 44.6 °F 87% 30.06 in 6.2 mi SSW 5.8 mph - N/A   Scattered Clouds
7:00 AM 47 °F - 44 °F 86% 30.04 in 16 mi SW 4.6 mph - -   Partly Cloudy
8:20 AM 44.6 °F 43.1 °F 42.8 °F 93% 30.06 in 6.2 mi SW 3.5 mph - N/A   Partly Cloudy
8:50 AM 46.4 °F - 44.6 °F 93% 30.06 in 6.2 mi Variable 2.3 mph - N/A   Partly Cloudy
9:20 AM 50.0 °F - 46.4 °F 87% 30.06 in 6.2 mi Variable 1.2 mph - N/A   Partly Cloudy
9:50 AM 50.0 °F - 46.4 °F 87% 30.06 in 6.2 mi SSW 5.8 mph - N/A   Partly Cloudy
10:00 AM 51 °F - 47 °F 82% 30.06 in 16 mi SSW 5.8 mph - -   Partly Cloudy
10:20 AM 53.6 °F - 48.2 °F 82% 30.06 in - SSW 6.9 mph - N/A   Clear
10:50 AM 57.2 °F - 50.0 °F 77% 30.06 in 6.2 mi SW 6.9 mph - N/A   Scattered Clouds
11:20 AM 57.2 °F - 50.0 °F 77% 30.06 in 6.2 mi SW 10.4 mph - N/A   Scattered Clouds
11:50 AM 57.2 °F - 50.0 °F 77% 30.04 in 6.2 mi SW 6.9 mph - N/A   Mostly Cloudy
12:20 PM 57.2 °F - 50.0 °F 77% 30.04 in 6.2 mi SW 5.8 mph - N/A   Mostly Cloudy
12:50 PM 59.0 °F - 50.0 °F 72% 30.04 in 6.2 mi SW 5.8 mph - N/A   Mostly Cloudy
1:00 PM 59 °F - 50 °F 64% 30.01 in 16 mi SW 5.8 mph - -   Partly Cloudy
1:20 PM 59.0 °F - 50.0 °F 72% 30.01 in 6.2 mi Variable 3.5 mph - N/A   Scattered Clouds
1:50 PM 60.8 °F - 51.8 °F 72% 30.01 in 6.2 mi SW 12.7 mph - N/A   Scattered Clouds
2:20 PM 60.8 °F - 51.8 °F 72% 30.01 in 6.2 mi SW 11.5 mph - N/A   Scattered Clouds
2:50 PM 59.0 °F - 50.0 °F 72% 30.01 in 6.2 mi SW 12.7 mph - N/A   Scattered Clouds
3:20 PM 59.0 °F - 50.0 °F 72% 30.01 in 6.2 mi SW 11.5 mph - N/A   Scattered Clouds
3:50 PM 59.0 °F - 51.8 °F 77% 30.01 in 6.2 mi SW 4.6 mph - N/A   Scattered Clouds
4:00 PM 58 °F - 51 °F 71% 30.01 in 16 mi SSW 4.6 mph - -   Mostly Cloudy
4:20 PM 59.0 °F - 51.8 °F 77% 30.01 in 6.2 mi SSW 4.6 mph - N/A   Scattered Clouds
4:50 PM 57.2 °F - 50.0 °F 77% 30.01 in 6.2 mi South 5.8 mph - N/A   Partly Cloudy
5:20 PM 57.2 °F - 50.0 °F 77% 30.01 in 6.2 mi Variable 2.3 mph - N/A   Partly Cloudy
5:50 PM 53.6 °F - 48.2 °F 82% 30.01 in 6.2 mi Variable 1.2 mph - N/A   Partly Cloudy
6:20 PM 55.4 °F - 50.0 °F 82% 30.01 in 6.2 mi Variable 2.3 mph - N/A   Partly Cloudy
6:50 PM 55.4 °F - 50.0 °F 82% 30.04 in 6.2 mi South 5.8 mph - N/A   Partly Cloudy
7:00 PM 53 °F - 49 °F 80% 30.04 in 16 mi SW 5.8 mph - -   Mostly Cloudy
7:20 PM 53.6 °F - 50.0 °F 88% 30.04 in 6.2 mi SSW 4.6 mph - N/A   Partly Cloudy
7:50 PM 55.4 °F - 50.0 °F 82% 30.04 in - South 3.5 mph - N/A   Clear
8:20 PM 51.8 °F - 48.2 °F 88% 30.04 in - Variable 2.3 mph - N/A   Clear
8:50 PM 53.6 °F - 50.0 °F 88% 30.04 in - Variable 2.3 mph - N/A   Clear
9:20 PM 53.6 °F - 50.0 °F 88% 30.04 in - SSW 5.8 mph - N/A   Clear
9:50 PM 53.6 °F - 48.2 °F 82% 30.04 in - SSW 6.9 mph - N/A   Clear
10:00 PM 54 °F - 50 °F 81% 30.04 in 16 mi South 6.9 mph - -   Mostly Cloudy
10:20 PM 57.2 °F - 50.0 °F 77% 30.04 in - SSW 13.8 mph - N/A   Clear
10:50 PM 55.4 °F - 50.0 °F 82% 30.04 in - SSW 10.4 mph - N/A   Clear
11:20 PM 55.4 °F - 50.0 °F 82% 30.06 in - South 5.8 mph - N/A   Clear
11:50 PM 55.4 °F - 50.0 °F 82% 30.04 in - SSW 4.6 mph - N/A   Clear